This is the latest recevied weather packets stored in our database for station/object DM1HF-13. If no packets are shown the sender has not sent any weather packets the latest 10 day(s).
| Time | Temp. | Humidity | Pressure | Rain* | Wind** | Luminosity | Snow |
|---|---|---|---|---|---|---|---|
| 1777723217 | 26.11° C | 26% | 1022.3 hPa | 0 mm | - | 650 W/m² | - |
| 1777722917 | 25.56° C | 24% | 1022.5 hPa | 0 mm | - | 656 W/m² | - |
| 1777722617 | 25.56° C | 25% | 1022.6 hPa | 0 mm | - | 659 W/m² | - |
| 1777722317 | 25.56° C | 26% | 1022.6 hPa | 0 mm | - | 661 W/m² | - |
| 1777722017 | 25.56° C | 25% | 1022.8 hPa | 0 mm | - | 658 W/m² | - |
| 1777721717 | 25.56° C | 27% | 1022.8 hPa | 0 mm | - | 658 W/m² | - |
| 1777721417 | 25° C | 29% | 1022.8 hPa | 0 mm | - | 659 W/m² | - |
| 1777721117 | 25.56° C | 28% | 1022.9 hPa | 0 mm | - | 659 W/m² | - |
| 1777720817 | 25.56° C | 28% | 1023 hPa | 0 mm | - | 657 W/m² | - |
| 1777720517 | 25.56° C | 28% | 1023.1 hPa | 0 mm | - | 647 W/m² | - |
| 1777720217 | 25° C | 28% | 1023.2 hPa | 0 mm | - | 649 W/m² | - |
| 1777719917 | 25° C | 28% | 1023.2 hPa | 0 mm | - | 649 W/m² | - |
| 1777719617 | 25° C | 29% | 1023.3 hPa | 0 mm | - | 644 W/m² | - |
| 1777719317 | 25° C | 29% | 1023.3 hPa | 0 mm | - | 638 W/m² | - |
| 1777719017 | 24.44° C | 28% | 1023.4 hPa | 0 mm | - | 635 W/m² | - |
| 1777718717 | 24.44° C | 28% | 1023.4 hPa | 0 mm | - | 630 W/m² | - |
| 1777718417 | 25° C | 32% | 1023.5 hPa | 0 mm | - | 623 W/m² | - |
| 1777718117 | 24.44° C | 32% | 1023.6 hPa | 0 mm | - | 614 W/m² | - |
| 1777717817 | 23.89° C | 30% | 1023.6 hPa | 0 mm | - | 612 W/m² | - |
| 1777717517 | 24.44° C | 31% | 1023.6 hPa | 0 mm | - | 609 W/m² | - |
| 1777717217 | 23.89° C | 31% | 1023.8 hPa | 0 mm | - | 598 W/m² | - |
| 1777716917 | 24.44° C | 30% | 1023.8 hPa | 0 mm | - | 595 W/m² | - |
| 1777716617 | 23.89° C | 32% | 1023.8 hPa | 0 mm | - | 583 W/m² | - |
| 1777716317 | 23.89° C | 32% | 1023.9 hPa | 0 mm | - | 575 W/m² | - |
| 1777716017 | 23.33° C | 32% | 1023.9 hPa | 0 mm | - | 570 W/m² | - |
* Rain latest hour (hover to see other rain measurements)
** Current wind speed in m/s (hover to see current wind gust speed)